This demonstration page uses our WeatherBlox Daily Observations layout. Learn more.

39.29038, -76.61219

Hourly Observations for February 14, 2020

Temp ( °F °C ) Dew Point ( °F °C ) Humidity (%) Winds ( mph kmh ) Pressure ( in mb ) Visibility ( mi km ) Precip ( " mm )
12:54 am 00:54 undefined 42 5.6 28 -2.2 58 58 undefined N/A 30.05 1018 N/A 0 0
1:54 am 01:54 undefined 41 5 27 -2.8 57 57 undefined N/A 30.06 1018 N/A 0 0
2:54 am 02:54 undefined 40 4.4 26 -3.3 58 58 undefined N/A 30.06 1018 N/A 0 0
3:54 am 03:54 undefined 39 3.9 26 -3.3 60 60 undefined N/A 30.08 1019 N/A 0 0
4:54 am 04:54 undefined 40 4.4 24 -4.4 53 53 undefined N/A 30.12 1020 N/A 0 0
5:54 am 05:54 undefined 39 3.9 24 -4.4 55 55 undefined N/A 30.16 1021 N/A 0 0
6:54 am 06:54 undefined 38 3.3 20 -6.7 48 48 undefined N/A 30.2 1023 N/A 0 0
7:54 am 07:54 undefined 38 3.3 20 -6.7 48 48 undefined N/A 30.24 1024 N/A 0 0
8:54 am 08:54 undefined 36 2.2 17 -8.3 46 46 undefined N/A 30.28 1026 N/A 0 0
9:54 am 09:54 undefined 38 3.3 16 -8.9 41 41 undefined N/A 30.35 1028 N/A 0 0
10:54 am 10:54 undefined 36 2.2 15 -9.4 42 42 undefined N/A 30.34 1028 N/A 0 0
11:54 am 11:54 undefined 36 2.2 12 -11.1 37 37 undefined N/A 30.34 1027 N/A 0 0
12:54 pm 12:54 undefined 36 2.2 10 -12.2 34 34 undefined N/A 30.35 1028 N/A 0 0
1:54 pm 13:54 undefined 35 1.7 8 -13.3 32 32 undefined N/A 30.35 1028 N/A 0 0
2:54 pm 14:54 undefined 35 1.7 8 -13.3 32 32 undefined N/A 30.33 1027 N/A 0 0
3:54 pm 15:54 undefined 34 1.1 9 -12.8 35 35 undefined N/A 30.37 1028 N/A 0 0
4:54 pm 16:54 undefined 33 0.6 7 -13.9 33 33 undefined N/A 30.4 1030 N/A 0 0
5:54 pm 17:54 undefined 32 0 7 -13.9 35 35 undefined N/A 30.44 1031 N/A 0 0
6:54 pm 18:54 undefined 31 -0.6 7 -13.9 36 36 undefined N/A 30.48 1032 N/A 0 0
7:54 pm 19:54 undefined 30 -1.1 8 -13.3 39 39 undefined N/A 30.52 1034 N/A 0 0
8:54 pm 20:54 undefined 29 -1.7 7 -13.9 39 39 undefined N/A 30.61 1037 N/A 0 0
9:54 pm 21:54 undefined 29 -1.7 6 -14.4 38 38 undefined N/A 30.51 1033 N/A 0 0
10:54 pm 22:54 undefined 28 -2.2 8 -13.3 43 43 undefined N/A 30.64 1038 N/A 0 0
11:54 pm 23:54 undefined 27 -2.8 7 -13.9 43 43 undefined N/A 30.6 1036 N/A 0 0

Powered by AerisWeather